BSAT-3B

Last updated on Wed Oct 22 2025 00:02:47 GMT+0000 (Coordinated Universal Time)

1 37207U 10056B 25294.64575015 -.00000343 00000+0 00000+0 0 9995 2 37207 0.0228 177.2829 0004566 46.7279 148.6689 1.00271448 49704
UTC large
Height (km)
Speed (km/s)
/
Latitude / Longitude
Inclination (degrees)
Orbital Period (minutes)
Azimuth
Elevation
Range (km)
Doppler Factor

Next 0 passes for location: London (51.5072 / 0.1276)

Sorry there are no passes over London.